Location: Red Bud (historical)
(37.7759°N, 88.4053°W)
Time: 23:20:51
(UTC+00:00)

Cosmos 1825 - Pass Details

Date: 29 October 2020
Orbit: 502 x 508 km, 82.5° (Epoch: 28 November)

Event Time Altitude Azimuth Distance (km) Brightness Sun altitude
Rises 23:31:58 0° 18° (NNE) 2,617 5.5 -7.4°
Reaches altitude 10° 23:35:44 10° 57° (ENE) 1,722 4.3 -8.1°
Maximum altitude 23:36:43 11° 72° (ENE) 1,670 4.1 -8.3°
Enters shadow 23:36:49 11° 73° (ENE) 1,670 4.1 -8.3°
